This is the latest recevied weather packets stored in our database for station/object HB9FHL-13. If no packets are shown the sender has not sent any weather packets the latest 10 day(s).
| Time | Temp. | Humidity | Pressure | Rain* | Wind** | Luminosity | Snow |
|---|---|---|---|---|---|---|---|
| 1777814360 | 20° C | - | 1012.8 hPa | 0 mm | - | - | - |
| 1777814057 | 19.44° C | - | 1011.9 hPa | 0 mm | - | - | - |
| 1777813757 | 20° C | - | 1009.5 hPa | 0 mm | - | - | - |
| 1777813456 | 20° C | - | 1016.4 hPa | 0 mm | - | - | - |
| 1777813154 | 21.11° C | - | 1011 hPa | 0 mm | - | - | - |
| 1777812854 | 21.11° C | - | 1012.7 hPa | 0 mm | - | - | - |
| 1777812553 | 20° C | - | 1020.1 hPa | 0 mm | - | - | - |
| 1777812249 | 20° C | - | 1012.4 hPa | 0 mm | - | - | - |
| 1777811949 | 21.11° C | - | 1017.1 hPa | 0 mm | - | - | - |
| 1777811648 | 20° C | - | 1018.8 hPa | 0 mm | - | - | - |
| 1777811348 | 20° C | - | 1013.3 hPa | 0 mm | - | - | - |
| 1777811046 | 18.89° C | - | 1015.6 hPa | 0 mm | - | - | - |
| 1777810741 | 20° C | - | 1007.4 hPa | 0 mm | - | - | - |
| 1777810439 | 20° C | - | 1020.8 hPa | 0 mm | - | - | - |
| 1777810137 | 18.89° C | - | 1008.7 hPa | 0 mm | - | - | - |
| 1777809840 | 18.89° C | - | 1010.8 hPa | 0 mm | - | - | - |
| 1777809536 | 20° C | - | 1016.3 hPa | 0 mm | - | - | - |
| 1777809236 | 18.89° C | - | 1018.5 hPa | 0 mm | - | - | - |
| 1777808932 | 18.89° C | - | 1013 hPa | 0 mm | - | - | - |
| 1777808631 | 19.44° C | - | 1008.5 hPa | 0 mm | - | - | - |
| 1777808331 | 19.44° C | - | 1021 hPa | 0 mm | - | - | - |
| 1777808030 | 18.89° C | - | 1017.6 hPa | 0 mm | - | - | - |
| 1777807730 | 18.89° C | - | 1014.4 hPa | 0 mm | - | - | - |
| 1777807429 | 18.89° C | - | 1015.8 hPa | 0 mm | - | - | - |
| 1777807129 | 19.44° C | - | 1017.3 hPa | 0 mm | - | - | - |
* Rain since midnight (hover to see other rain measurements)
** Current wind speed in m/s (hover to see current wind gust speed)